Location: Newark
(33.6439°N, 114.9881°W)
Time: 05:33:19
(UTC+00:00)

A-11 Canister half - Pass Details

Date: 29 August 2019
Orbit: 1527 x 1682 km, 47.3° (Epoch: 13 September)

Event Time Altitude Azimuth Distance (km) Brightness Sun altitude
Rises 02:47:56 0° 291° (WNW) 4,934 14.2 -8.3°
Reaches altitude 10° 02:52:44 10° 272° (W) 3,933 12.6 -9.3°
Maximum altitude 02:58:17 16° 238° (WSW) 3,420 11.4 -10.4°
Drops below altitude 10° 03:03:47 10° 203° (SSW) 3,878 11.2 -11.5°
Sets 03:08:32 0° 184° (S) 4,833 11.4 -12.4°
